Location: Killam
(52.7910°N, 111.8608°W)
Time: 13:01:35
(UTC+00:00)

ISS - Pass Details

Date: 22 January 2026
Orbit: 413 x 428 km, 51.6° (Epoch: 18 February)

Event Time Altitude Azimuth Distance (km) Brightness Sun altitude
Rises 02:57:40 0° 279° (W) 2,370 1.3 -27.4°
Reaches altitude 10° 02:59:48 10° 274° (W) 1,508 0.0 -27.7°
Enters shadow 03:01:08 21° 265° (W) 1,002 -1.2 -27.9°
